{"data":{"norad_id":62846,"epoch":"2026-05-25T00:23:06.609408Z","epoch_age_seconds":76728,"freshness":"FRESH","line1":"1 62846U 25019T   26145.01604872  .00023492  00000+0  85998-3 0  9990","line2":"2 62846  43.0027  17.9690 0001568 264.4221  95.6452 15.27599342 73926","mean_motion":15.27599342,"eccentricity":0.0001568,"inclination_deg":43.0027,"raan_deg":17.969,"arg_perigee_deg":264.4221,"mean_anomaly_deg":95.6452,"bstar":0.00085998,"rev_number":7392,"period_min":94.265555136643,"perigee_km":481.91535484593,"apogee_km":484.0670046431,"semimajor_km":6861.1281797445,"source":"CELESTRAK","updated_at":"2026-05-25T13:38:19.781774Z"}}